AirNav   Air Wisconsin pilot careers
 
 1500 users online  

CA84 Torrey Pines Gliderport
San Diego, California, USA

GOING TO SAN DIEGO?


FAA INFORMATION EFFECTIVE 07 DECEMBER 2017

Location

FAA Identifier: CA84
Lat/Long: 32-53-23.0000N / 117-14-49.0000W
32-53.383333N / 117-14.816667W
32.8897222 / -117.2469444
(estimated)
Elevation: 372 ft. / 113 m (estimated)
Variation: 13E (1985)
From city: 11 miles NW of SAN DIEGO, CA
Time zone: UTC -8 (UTC -7 during Daylight Saving Time)
Zip code: 92037

Gliderport Operations

Gliderport use: Private use. Permission required prior to landing
Activation date: 11/1961
Control tower: no
ARTCC: LOS ANGELES CENTER
FSS: SAN DIEGO FLIGHT SERVICE STATION
Attendance: UNATNDD
Wind indicator: no
Segmented circle: no

Gliderport Communications

WX ASOS at MYF (7 nm SE): PHONE 858-576-4337
WX ASOS at SAN (10 nm S): PHONE 619-296-8934
WX AWOS-3P at SEE (14 nm E): 125.45 (619-449-1228)
WX ASOS at CRQ (14 nm N): PHONE 760-930-0864
WX ASOS at RNM (19 nm NE): 132.025 (760-789-0736)

Nearby radio navigation aids

VOR radial/distance  VOR name  Freq  Var
MZBr335/6.5MISSION BAY VORTAC117.8015E
PGYr307/21.5POGGI VORTAC109.8014E
OCNr143/22.7OCEANSIDE VORTAC115.3015E
TIJr311/25.7TIJUANA VOR/DME116.5014E
JLIr231/36.5JULIAN VORTAC114.0015E

Gliderport Services

Airframe service: NONE
Powerplant service: NONE

Runway Information

Runway 9/27

Dimensions: 1500 x 30 ft. / 457 x 9 m
Surface: asphalt
RUNWAY 9  RUNWAY 27
Traffic pattern: leftleft
Obstructions: nonetrees, 100 ft. from runway

Gliderport Ownership and Management from official FAA records

Ownership: Publicly-owned
Owner: CITY OF SAN DIEGO
Manager: JIM FROST
4740 HARBINSON AVE
LA MESA, CA 91941
Phone 619-461-9614
WORK PHONE 619-535-9505 EXT 1585

Additional Remarks

GLIDER PORT IS LEASED FM CITY TO THE ASSOCD GLIDER CLUB OF SOUTHERN CALIF FOR STUDENT TRAINING & RIDGE SOARING.
ALL ACFT ARE TRAILERED GLIDERS.
ROLLING RWY .6 PERCENT GRADIENT.
EXTENSIVE HANG GLIDER OPERATIONS ON WEEKENDS AND WEEKDAYS.

Instrument Procedures

There are no published instrument procedures at CA84.

Some nearby airports with instrument procedures:

KNKX - Miramar Marine Corps Air Station (5 nm E)
KMYF - Montgomery-Gibbs Executive Airport (7 nm SE)
KSAN - San Diego International Airport (10 nm S)
KNZY - North Island Naval Air Station (Halsey Field) (12 nm S)
KSEE - Gillespie Field Airport (14 nm E)
KCRQ - Mc Clellan-Palomar Airport (14 nm N)
KRNM - Ramona Airport (19 nm NE)
 
Loc | Ops | Rwys | IFR | FBO | Links
Com | Nav | Svcs | Stats | Notes


 
Area around CA84 (Torrey Pines Gliderport)
 
Road maps at: MapQuest Bing Google
 
Aerial photo
WARNING: Photo may not be current or correct
Aerial photo of CA84 (Torrey Pines Gliderport)
Photo by Doug Fronius
Photo taken 13-Mar-2004
from a 1942 Schweizer TG-2 sailplane.

Do you have a better or more recent aerial photo of Torrey Pines Gliderport that you would like to share? If so, please send us your photo.

 
Sectional chart

 
Airport distance calculator
Flying to Torrey Pines Gliderport? Find the distance to fly.

From to CA84

Sunrise and sunset
Times for 12-Dec-2017
 Local
(UTC-8)
 Zulu
(UTC)
Morning civil twilight06:1614:16
Sunrise06:4314:43
Sunset16:4200:42
Evening civil twilight17:0901:09

Current date and time
Zulu (UTC)  12-Dec-2017 18:06:08
Local (UTC-8)  12-Dec-2017 10:06:08
 
METAR
KNKX 
6nm E 
121755Z 03003KT 10SM FEW250 27/M13 A3018 RMK AO2 SLP215 T02671128 10267 20122 50004
KMYF 
7nm SE 
121753Z 00000KT 10SM CLR 26/M14 A3018 RMK AO2 RAB43E50 SLP216 P0000 60000 T02611144 10261 20050 50004
KSAN 
10nm S 
121751Z 34004KT 10SM CLR 22/M10 A3019 RMK AO2 SLP221 T02221100 10222 20100 50001
KNZY 
11nm S 
121652Z 32003KT 10SM FEW250 18/01 A3018 RMK SLP218 T01780006
KCRQ 
15nm N 
121753Z AUTO 00000KT 10SM CLR 23/M10 A3017 RMK AO2 SLP215 T02331100 10239 20106 50003
KSEE 
15nm E 
121747Z 00000KT 10SM SKC 14/M10 A3018
KRNM 
19nm NE 
121753Z 08004KT 10SM CLR 24/M14 A3020 RMK AO2 SLP213 T02391144 10244 20022
TAF
KNKX 
6nm E 
1215/1315 08008KT 9999 SKC QNH3015INS BECMG 1216/1218 VRB05KT 9999 FEW250 QNH3016INS FM121830 31009KT 9999 SCT250 QNH3002INS BECMG 1303/1305 06008KT 999 SCT250 QNH2998INS T28/1222Z T11/1314Z
KSAN 
10nm S 
121722Z 1218/1324 VRB03KT P6SM SKC FM122000 31009KT P6SM SKC FM130000 VRB03KT P6SM FEW250 FM132000 30008KT P6SM FEW250
KNZY 
11nm S 
1215/1315 VRB06KT 9999 FEW250 530009 530901 QNH3011INS BECMG 1219/1221 31009KT 9999 FEW250 530009 530901 QNH3004INS FM130200 VRB05KT 9999 SKC 530009 530901 QNH3000INS T24/1221Z T12/1312Z FS30022
KCRQ 
15nm N 
121722Z 1218/1318 VRB06KT P6SM SKC
NOTAMs
Click for the latest NOTAMs
NOTAMs are issued by the DoD/FAA and will open in a separate window not controlled by AirNav.

 

 
 

Would you like to see your business listed on this page?

 If your business provides an interesting product or service to pilots, flight crews, aircraft, or users of the Torrey Pines Gliderport, you should consider listing it here.  To start the listing process, click on the button below
 
Add a business
 

Other Pages about Torrey Pines Gliderport

www.agcsc.org/torrey_pines_info.html
 
Update a link
 
Copyright © AirNav, LLC. All rights reserved. Privacy Policy  Contact